Theta_e
310 310 310 309 309 309 309 310 310 310 310 310 309 309 308 308 308 308 307 308 308 309 309 309 308 308 308 309 310 310 310 310 311 314 314 311 311 313 312 311 311 312 313 313 313 314 316 317 318 318 318 319 319 320 321 322 323 323 323 323 322 320 319 318 319 320 320 319 319 320 323 323 323 323 321 318 318 318 318 318 317 316 315 314 311
310 310 309 309 309 309 310 309 308 308 309 309 308 308 308 308 307 308 308 309 309 309 309 309 309 308 309 310 309 309 309 310 311 313 312 311 311 313 312 312 311 311 311 311 312 313 315 316 317 318 318 319 319 319 319 320 322 322 323 323 322 321 320 318 319 319 318 319 319 318 320 323 322 322 320 317 317 317 316 317 316 315 314 313 312
310 310 309 309 310 309 308 308 308 308 309 308 308 307 308 308 308 308 308 308 308 308 308 308 309 309 309 309 309 309 309 310 311 312 312 311 311 312 313 311 310 309 309 309 309 310 312 314 315 316 318 318 318 319 319 319 320 321 322 322 322 321 321 319 318 318 317 318 318 317 319 321 321 321 320 317 317 315 315 316 315 314 313 313 313
310 310 309 309 309 308 307 307 308 308 308 308 308 307 307 307 308 308 307 306 307 307 308 308 308 308 308 308 308 309 308 309 309 311 311 311 311 311 313 312 310 309 309 309 309 309 311 312 314 315 317 317 317 318 318 318 319 320 321 321 322 321 321 319 318 318 317 317 317 317 318 320 321 321 319 318 316 315 315 316 315 314 313 312 311
310 310 309 309 308 307 307 308 307 307 307 307 307 307 306 307 307 307 306 306 306 307 307 307 307 307 307 308 308 308 308 308 309 309 311 311 310 311 312 312 311 310 310 310 310 309 309 311 313 314 315 316 317 318 318 318 318 319 320 320 321 321 321 320 318 318 317 317 317 317 318 319 319 319 319 318 316 314 315 316 315 314 312 310 310
310 309 308 308 307 307 307 307 307 307 306 307 306 306 306 306 306 306 306 306 306 307 307 306 307 307 307 307 307 308 308 308 308 309 310 311 311 311 312 311 311 311 311 311 311 310 309 309 311 313 314 315 316 316 317 317 317 318 319 320 321 320 320 320 319 318 317 317 317 317 316 317 317 316 317 317 315 314 314 313 312 312 310 309 308
309 308 308 308 307 307 307 307 307 307 306 306 306 306 306 306 306 305 305 306 306 306 306 305 306 306 306 306 307 308 309 307 307 308 309 311 312 312 312 312 312 312 312 311 311 309 308 308 310 312 313 314 315 316 316 317 317 318 318 319 320 320 320 320 320 319 317 316 317 316 316 316 315 315 315 316 314 314 314 311 308 308 308 308 308
308 308 307 308 307 306 307 306 306 306 306 306 306 305 305 305 305 304 304 305 305 305 305 305 305 305 305 306 307 308 308 307 307 308 308 310 311 311 312 312 312 312 312 311 310 308 307 308 309 311 313 314 315 316 316 317 317 317 318 318 319 320 320 319 319 319 318 316 316 316 316 315 314 314 314 313 312 312 313 311 308 307 307 307 308
308 307 307 307 307 306 306 306 306 306 306 305 305 305 305 305 304 304 304 304 303 304 304 304 305 305 305 306 307 306 306 307 308 307 308 308 309 310 311 311 311 311 310 309 308 307 307 308 309 311 313 314 315 315 315 315 316 315 316 317 318 319 319 319 319 318 317 317 315 314 315 315 313 313 312 312 312 311 311 311 309 308 307 306 306
307 307 307 307 307 306 306 306 306 306 305 305 305 305 305 304 304 304 304 303 303 303 303 304 304 305 305 306 306 305 305 306 307 307 307 308 308 309 309 310 309 308 307 307 308 308 309 309 310 311 312 312 313 314 314 314 314 314 315 316 317 318 319 318 318 318 317 316 315 314 314 314 313 313 312 312 312 311 311 310 308 307 306 305 305
307 307 306 307 306 306 306 306 306 306 305 305 305 305 304 304 304 304 304 303 303 304 303 303 304 304 305 305 305 305 305 306 307 307 307 308 308 309 309 308 307 305 305 307 308 308 309 310 311 311 311 310 311 312 314 314 314 314 314 314 315 317 317 318 318 317 317 316 315 314 314 314 313 312 313 313 312 311 311 310 308 306 305 305 305
307 307 307 306 306 306 306 305 306 305 305 305 305 305 304 304 304 304 303 303 303 304 303 303 303 304 304 304 305 305 305 306 308 307 307 307 308 308 308 307 304 303 304 306 307 307 307 307 308 309 309 310 311 312 313 314 314 314 314 313 314 315 316 317 317 317 316 316 315 314 314 314 313 312 312 312 312 311 310 309 308 307 306 305 305
307 307 307 306 306 306 306 306 306 305 305 305 305 305 304 304 304 304 304 304 303 303 303 303 303 303 303 303 304 305 305 307 307 307 306 307 307 307 307 305 303 303 303 304 305 305 305 306 307 308 309 311 312 312 312 313 313 313 313 313 313 313 314 315 316 317 316 316 315 315 314 315 314 313 312 312 312 311 309 309 309 308 307 306 307
307 307 307 307 306 306 305 306 306 305 305 305 305 305 305 304 305 304 304 304 303 303 302 302 303 303 303 303 304 305 305 307 307 306 306 306 306 306 306 304 303 303 303 303 304 304 305 306 307 308 309 310 311 312 312 312 312 313 312 312 312 312 313 313 314 315 315 316 315 315 315 315 315 314 313 312 311 311 310 310 309 309 309 308 309
308 307 307 307 306 306 306 306 306 305 305 305 305 305 305 305 305 304 305 305 304 303 303 302 302 303 303 304 304 304 304 306 307 306 306 306 306 306 305 304 304 303 302 303 303 303 304 305 307 308 308 309 310 311 311 311 311 311 312 312 312 311 311 312 312 312 312 314 315 315 316 315 315 315 314 313 311 311 311 311 310 310 310 309 308
308 307 307 307 306 306 306 306 306 305 306 305 305 305 305 305 305 305 305 305 304 304 303 303 303 302 303 304 304 303 303 305 306 306 306 306 306 305 305 304 303 303 302 302 302 302 303 304 306 307 307 308 308 309 310 310 310 310 311 311 311 311 311 310 311 311 311 312 313 314 314 314 314 314 314 314 312 311 311 311 311 310 310 309 308
308 308 307 307 307 306 306 306 306 306 306 306 306 306 305 305 306 305 305 305 305 304 304 303 303 303 303 304 303 302 302 303 305 306 306 306 306 305 305 304 303 302 302 302 302 302 301 303 306 307 306 306 307 308 308 309 308 309 309 310 310 311 311 310 310 310 310 311 311 311 311 312 313 313 314 314 313 312 311 310 310 310 310 309 308
309 308 308 308 307 307 306 306 306 306 306 306 306 306 306 306 306 306 305 305 305 305 305 304 304 303 303 303 302 301 300 301 302 304 305 306 305 305 305 303 302 302 302 302 302 302 301 302 304 305 306 305 306 307 308 307 307 308 308 308 309 309 310 310 309 309 309 310 310 310 310 310 312 312 312 313 313 313 311 310 310 310 310 310 308
309 309 309 308 308 307 307 307 307 307 307 307 306 306 306 306 306 306 306 306 305 305 305 305 304 304 304 303 301 300 300 300 300 302 305 305 305 305 305 303 302 302 302 302 302 302 301 301 302 303 304 304 305 307 307 307 307 307 307 307 308 309 309 310 309 308 308 308 309 309 308 308 309 311 311 312 312 312 311 310 310 310 310 309 309
310 310 309 309 309 308 308 308 307 307 307 307 307 306 306 306 306 306 306 305 305 305 305 305 304 304 304 303 301 300 300 300 300 301 304 305 305 305 304 302 301 302 302 302 302 302 302 301 301 301 302 302 304 306 307 307 306 306 306 306 306 308 309 309 308 308 307 307 308 308 307 306 306 307 308 309 310 310 310 310 310 310 310 309 309
310 310 309 310 310 309 309 308 308 308 307 307 306 306 306 306 306 306 306 306 306 306 305 305 305 305 304 303 301 300 300 300 299 300 304 305 305 305 304 302 301 302 302 302 302 302 302 301 301 301 301 301 303 304 306 306 306 306 306 306 306 307 308 308 308 308 307 307 307 307 306 306 306 306 306 307 308 309 310 309 310 310 310 309 309
310 310 310 310 310 310 310 309 309 308 307 307 306 306 306 306 306 306 306 306 306 305 305 305 305 305 304 303 301 300 300 300 299 300 303 304 303 304 304 302 301 301 301 302 302 302 302 301 301 301 302 302 302 304 305 305 305 306 306 306 307 307 308 308 308 308 307 306 306 306 305 306 306 306 306 306 306 308 309 309 309 309 310 310 310
311 311 311 310 310 310 310 310 309 308 308 307 307 306 306 306 306 306 306 306 306 305 306 305 305 304 304 303 301 301 300 300 299 299 301 301 301 303 304 303 301 300 301 302 302 302 302 301 301 302 303 303 303 304 305 305 305 305 306 306 307 308 308 308 308 308 307 306 306 305 305 306 306 306 307 307 306 307 309 309 308 308 309 309 309
311 311 311 310 311 310 310 310 310 309 308 307 307 307 306 306 306 307 306 306 306 306 305 305 304 304 304 302 301 301 300 300 299 299 299 299 300 302 303 303 301 300 300 301 302 303 302 301 301 303 303 304 304 305 305 305 305 305 306 306 306 307 309 308 308 308 308 306 305 305 305 306 306 307 307 307 306 307 308 308 307 307 307 308 308
311 311 311 311 310 310 309 309 309 309 308 308 307 307 307 306 307 307 306 306 306 305 305 304 304 304 303 302 302 301 300 299 299 299 299 299 300 302 303 303 302 300 298 299 301 302 301 300 301 303 303 304 304 305 305 305 304 305 305 305 306 306 308 308 308 307 307 306 305 305 305 306 307 307 307 307 306 307 307 307 306 306 306 307 307
310 309 309 308 307 306 306 307 307 308 308 308 307 307 307 307 307 306 306 306 306 305 305 304 304 304 303 303 303 302 301 299 299 300 300 300 300 302 302 302 301 300 298 298 299 300 299 300 301 303 303 304 304 305 305 305 305 304 304 305 305 305 307 307 307 307 307 306 306 306 306 306 306 306 306 306 306 307 306 306 306 306 306 306 306
308 306 306 305 304 304 304 306 307 308 308 308 307 307 306 306 306 306 306 306 306 305 305 305 304 304 304 304 303 302 300 299 300 300 300 300 300 301 302 302 301 300 299 298 298 298 298 300 302 302 303 303 304 304 305 305 305 304 304 304 304 305 305 306 307 307 307 306 306 306 306 305 305 305 305 306 306 306 306 305 305 306 306 306 306
306 305 305 304 304 305 306 307 308 308 307 307 306 305 305 305 305 306 306 306 306 306 305 305 305 305 305 304 302 300 299 299 301 301 300 300 299 300 301 301 300 299 298 298 298 298 300 301 302 302 303 303 304 303 304 304 305 305 304 303 304 303 304 305 306 306 306 305 305 305 304 304 304 303 303 303 303 305 305 305 305 306 306 305 305
305 304 304 304 304 306 307 308 307 306 306 305 304 304 303 304 304 304 305 306 307 306 306 306 306 305 304 302 301 300 300 300 301 300 300 299 299 299 301 301 300 299 298 298 298 300 301 302 302 302 302 303 303 303 303 303 304 305 304 303 303 303 303 303 304 305 306 305 304 303 302 302 302 302 301 301 301 303 305 304 304 305 305 304 304
304 303 304 304 304 306 307 306 304 303 302 302 302 301 302 302 303 304 304 304 305 306 307 307 306 304 303 302 301 300 301 301 301 300 300 300 299 299 300 300 299 298 298 298 299 300 302 302 302 301 302 302 303 303 303 303 303 304 304 304 303 303 302 302 303 303 304 304 303 302 301 301 300 300 301 300 299 300 304 304 304 304 305 304 303
303 303 303 304 305 305 304 302 301 300 300 301 301 301 300 300 301 302 304 304 304 305 306 306 305 304 303 303 302 302 301 301 301 300 300 300 299 299 300 300 299 298 298 298 299 301 302 302 302 302 301 302 302 303 303 303 303 304 304 304 303 303 302 302 302 302 302 302 302 302 302 301 301 300 300 299 297 298 301 303 304 304 304 304 303
303 303 304 304 304 303 302 301 301 301 301 302 301 301 300 299 299 300 302 303 304 305 305 305 305 304 303 303 302 301 301 301 300 300 299 300 299 300 300 300 299 298 298 298 299 300 301 302 302 301 301 301 302 303 303 303 303 303 303 303 303 303 303 302 302 302 302 301 301 301 301 301 300 300 299 299 297 296 298 302 304 304 303 303 303
304 305 304 304 304 303 302 302 302 301 301 301 301 300 300 299 299 299 300 302 304 305 305 305 305 305 304 303 302 302 301 301 301 300 299 300 300 300 301 301 300 299 298 299 299 300 301 301 301 301 300 301 302 303 303 303 303 303 303 303 303 303 303 302 302 302 301 301 301 301 300 300 300 299 298 298 297 296 296 299 302 304 303 303 303
306 305 304 303 303 302 301 300 299 299 299 300 300 299 298 298 299 299 299 301 303 304 305 305 305 305 305 304 303 302 302 302 301 300 300 300 301 301 301 301 300 299 299 299 299 299 300 301 301 300 300 301 301 302 303 303 303 303 303 302 302 302 302 302 302 302 301 301 300 300 300 300 300 299 298 297 297 297 296 297 300 303 304 303 302
305 304 303 302 300 298 297 297 297 297 298 298 298 298 298 297 298 298 299 300 302 304 305 305 304 304 304 304 304 303 302 302 301 300 300 300 301 302 301 300 300 299 299 299 299 299 300 300 300 300 300 300 301 301 302 302 302 302 302 302 301 302 302 302 302 301 301 300 300 300 300 300 300 301 300 298 297 297 296 296 298 301 303 303 303
303 302 301 298 296 295 294 295 295 296 297 297 297 297 297 297 297 298 299 300 301 303 304 305 305 304 304 304 304 303 303 302 301 300 300 300 301 301 301 300 300 300 300 300 299 299 300 300 300 300 300 300 300 300 300 300 300 300 301 301 301 301 301 301 301 301 301 300 300 300 301 301 301 301 301 300 298 297 297 296 297 298 300 300 301
301 299 297 295 294 294 295 296 297 298 298 298 297 297 297 297 297 298 298 299 300 301 303 304 304 304 304 304 303 303 302 301 300 300 300 301 301 301 301 300 300 300 300 299 299 299 299 299 300 299 299 299 299 299 299 299 299 299 299 300 300 300 300 300 301 301 301 300 300 300 300 300 300 301 301 300 299 298 296 296 296 297 298 299 299
298 296 295 295 297 298 299 299 299 299 298 298 297 297 297 297 298 298 298 299 300 300 301 302 303 303 303 304 303 302 301 300 300 300 300 301 301 301 301 300 300 300 299 299 298 298 299 299 299 299 299 299 298 298 298 298 298 298 298 298 298 298 299 299 300 300 300 300 300 300 300 300 300 300 300 299 299 299 298 298 298 298 298 298 298
296 296 297 298 300 300 300 299 299 298 298 298 298 297 297 297 298 298 299 299 300 300 301 302 302 302 302 303 302 301 301 300 300 300 300 301 302 301 301 300 300 299 299 298 298 298 298 298 298 299 298 298 298 298 298 298 298 298 298 298 298 298 297 298 298 299 299 299 299 300 300 300 300 300 300 299 298 299 299 299 300 299 299 298 298
297 299 300 300 300 299 299 298 298 298 298 298 298 298 297 297 297 298 298 298 299 299 300 300 301 301 301 301 301 300 300 299 300 300 301 301 302 301 300 300 299 299 298 298 298 298 298 298 298 297 297 298 298 298 298 298 298 298 298 298 297 297 297 297 297 297 297 297 298 298 299 299 299 300 300 299 299 298 299 298 299 300 299 298 298
300 300 300 299 298 298 298 298 298 298 298 298 297 297 297 297 297 297 297 298 298 298 298 299 299 299 299 299 299 299 298 298 299 299 300 301 301 300 300 299 298 299 298 298 298 298 297 297 297 297 297 297 296 297 297 297 297 298 298 297 297 297 297 297 296 296 296 296 296 297 297 298 298 299 299 299 299 299 299 299 299 300 301 300 299
299 299 298 298 298 298 298 298 298 298 298 297 297 296 296 296 296 296 296 297 296 296 296 297 297 297 297 297 298 298 298 298 298 298 300 300 300 300 299 298 298 298 298 298 298 298 297 297 297 296 296 296 296 295 295 295 296 296 297 297 296 296 296 296 296 296 296 296 296 296 296 296 297 297 298 299 299 299 300 300 301 301 301 301 300
297 297 297 297 297 297 298 297 298 297 297 296 296 295 295 295 295 295 295 295 294 294 295 295 295 295 296 296 297 297 298 298 298 298 298 298 299 299 298 297 297 298 298 298 297 297 297 297 296 296 296 296 296 295 295 294 294 295 295 295 295 294 295 295 295 295 296 295 295 296 296 296 296 296 296 297 298 298 299 300 300 301 300 300 299
296 296 296 297 297 297 297 297 297 296 296 295 294 294 293 293 293 293 293 293 293 293 293 293 293 294 294 295 296 296 297 297 297 298 297 297 298 298 297 296 297 297 297 297 297 297 297 296 296 295 295 295 295 295 294 293 293 293 293 293 293 293 293 294 294 294 294 294 295 295 295 296 296 296 295 295 296 297 297 298 299 299 299 299 298
296 296 296 297 296 296 296 296 296 295 294 293 293 292 292 291 292 292 292 292 292 292 292 292 292 292 293 293 294 295 296 296 297 297 297 297 297 296 296 296 297 297 297 297 297 296 296 296 295 295 295 294 294 294 293 293 292 292 292 291 291 291 291 292 292 292 293 293 294 294 295 295 295 295 295 295 295 295 296 297 297 298 298 298 298
296 296 296 296 295 295 295 295 294 294 293 292 291 291 291 290 291 291 291 291 291 291 291 291 291 291 292 293 294 294 295 296 296 296 297 297 296 295 295 296 297 296 296 296 296 295 295 295 295 294 294 293 293 293 293 292 291 291 291 290 290 290 290 290 290 291 291 292 293 294 294 295 295 295 295 296 296 295 295 295 295 296 296 297 298
295 295 295 295 295 294 294 293 293 293 292 291 291 291 290 290 290 291 291 290 290 291 291 290 290 291 292 292 293 293 293 294 294 294 295 296 295 295 295 295 295 295 295 295 294 294 294 294 294 293 293 293 293 292 292 291 291 290 290 290 290 290 289 289 289 289 290 291 292 292 293 294 294 295 295 295 296 296 296 295 295 294 294 295 296
294 294 294 293 293 293 292 292 291 291 291 291 290 290 290 289 290 290 290 289 290 290 289 289 289 290 291 292 292 292 292 292 292 293 293 294 294 294 294 294 294 294 294 294 293 293 293 293 293 293 293 293 292 292 291 291 290 290 290 289 289 289 289 289 288 289 289 290 290 291 292 292 293 294 294 295 295 296 296 296 296 295 295 294 295
293 292 291 291 291 291 291 290 290 290 290 290 289 289 289 289 289 289 288 288 289 289 289 289 289 290 290 290 291 291 291 291 292 292 292 293 293 293 293 293 293 293 293 293 292 292 292 292 292 292 292 292 291 291 290 290 290 289 289 289 288 288 287 287 287 288 289 289 290 290 291 291 292 293 293 294 295 295 295 296 296 296 296 295 295
290 289 289 288 288 289 289 288 288 288 289 288 288 288 288 288 287 287 287 287 288 288 288 289 289 289 289 289 289 290 290 290 291 291 292 292 292 292 292 292 292 292 292 292 292 292 291 291 291 291 291 291 291 290 290 290 289 288 288 286 285 284 283 283 284 286 288 289 290 290 291 291 291 292 292 293 294 295 295 296 296 296 296 296 296
287 287 286 286 286 286 286 286 286 286 287 286 286 286 286 286 286 286 286 286 286 287 287 288 288 288 288 288 288 288 289 289 290 290 291 291 291 292 291 291 291 292 291 291 291 291 291 291 291 290 290 290 290 289 289 288 288 287 286 283 281 280 280 281 283 285 286 288 288 290 290 291 291 291 292 292 293 294 294 295 296 296 296 297 296
Wind_Speed
4 5 6 7 10 12 10 8 10 10 10 10 11 12 12 12 13 14 15 14 14 14 16 17 18 19 19 18 19 20 21 22 21 16 18 23 23 21 20 20 21 21 21 21 21 21 22 22 22 22 21 20 20 20 22 23 23 22 23 26 25 23 25 22 12 10 16 16 14 20 27 30 31 33 30 27 25 22 20 18 17 17 16 14 13
3 4 6 8 11 12 11 11 11 11 10 11 13 14 14 13 14 15 14 14 15 16 18 19 19 19 19 19 20 21 21 21 19 17 20 24 23 20 20 20 21 22 22 22 23 23 23 24 23 23 23 22 22 21 21 22 22 22 22 24 25 26 26 25 20 12 12 17 17 18 25 30 32 32 32 30 28 25 24 22 20 19 18 16 14
3 4 7 11 12 12 13 12 11 11 12 12 14 14 14 14 14 15 15 16 16 17 17 18 19 19 20 21 22 22 21 20 19 18 21 23 22 21 21 21 22 22 23 24 25 24 24 24 24 24 23 24 24 23 22 22 22 23 24 24 25 27 28 26 22 17 14 16 18 18 23 29 31 33 34 32 29 27 26 25 24 23 20 18 17
4 5 9 12 13 13 13 12 12 12 12 12 13 13 13 14 13 14 16 17 16 16 16 17 18 19 20 21 22 22 21 21 21 20 21 21 21 21 21 21 22 23 24 25 26 25 24 24 24 24 23 24 24 24 23 23 23 23 24 25 25 28 30 27 22 20 17 16 18 20 25 29 32 33 34 32 30 29 28 27 26 25 23 20 18
5 8 11 13 13 14 13 12 11 12 11 11 12 13 14 14 13 14 17 17 16 15 16 17 18 18 19 20 21 22 22 23 24 23 22 21 21 21 20 21 22 23 25 26 27 26 25 24 24 23 22 23 23 24 24 25 25 24 25 25 24 26 29 28 24 20 17 15 19 22 25 28 29 31 34 33 30 28 27 27 27 26 24 21 19
8 11 13 13 13 13 12 11 10 10 10 11 12 14 14 14 13 15 17 17 16 16 17 18 18 19 19 20 22 23 22 22 24 24 22 21 21 21 21 21 22 23 24 26 28 28 26 25 24 23 22 22 23 24 25 26 26 25 24 25 25 25 26 27 26 22 19 18 20 22 25 27 26 27 33 35 33 30 26 23 24 25 25 23 20
11 13 13 13 12 12 11 10 9 9 10 12 13 14 14 13 14 16 17 16 16 17 18 18 18 19 20 21 22 21 20 21 22 22 22 22 21 21 22 23 23 24 25 26 27 28 27 25 24 23 23 23 23 24 26 26 25 25 24 24 25 26 26 26 25 23 20 20 21 23 27 29 28 27 32 34 32 31 30 25 22 23 24 24 23
13 13 12 12 11 10 9 8 8 9 10 12 13 13 14 14 16 17 17 17 17 18 18 19 18 19 20 22 22 20 19 20 20 21 22 21 21 21 22 23 24 25 26 27 27 27 27 25 24 24 24 24 23 24 25 25 24 25 25 25 24 25 25 25 23 22 20 19 21 23 27 28 27 26 29 29 25 26 31 30 27 27 27 25 24
13 12 12 11 10 8 8 8 8 9 9 11 12 12 13 15 16 17 17 18 18 18 18 19 19 20 21 21 21 20 21 20 19 19 21 21 20 21 21 22 24 25 26 27 27 26 26 25 25 25 24 24 23 24 23 22 22 24 25 25 24 24 24 23 22 22 20 18 20 21 22 24 25 24 26 29 28 29 31 29 27 29 29 25 23
12 12 11 10 9 7 7 7 7 8 9 11 12 12 13 14 15 16 17 19 19 19 19 20 20 21 21 20 20 21 23 20 17 18 20 20 20 20 21 22 23 25 25 26 26 26 25 25 25 25 25 24 24 24 23 21 21 23 24 25 24 25 25 23 23 23 21 19 21 19 16 18 24 26 27 31 31 31 31 27 24 26 26 20 17
11 11 10 8 7 6 6 6 7 8 9 11 12 13 13 14 15 15 16 19 20 20 20 20 21 20 20 19 20 22 23 19 16 18 20 19 19 19 21 22 23 23 23 24 25 26 26 25 25 26 26 26 25 24 23 22 22 23 24 23 23 24 25 24 24 24 24 22 22 21 17 17 23 28 30 31 30 30 33 31 27 28 25 18 13
10 9 8 6 6 6 6 7 8 9 10 11 12 13 12 13 14 14 16 18 19 19 20 20 21 20 19 20 20 22 22 17 15 18 20 19 19 19 20 22 22 22 22 22 24 26 26 26 26 26 25 25 25 24 22 21 22 22 22 22 22 23 25 26 26 26 26 24 22 22 21 19 21 25 28 29 30 31 32 31 30 31 28 23 18
8 7 6 5 6 6 7 8 9 9 9 10 11 12 13 14 13 13 15 17 17 18 20 21 22 21 20 21 22 21 20 16 14 17 18 17 18 19 20 21 22 21 21 21 23 25 26 26 26 25 24 23 23 23 22 22 21 21 21 21 21 20 21 23 26 28 28 27 24 24 24 21 22 25 26 27 31 32 30 29 31 33 30 28 28
5 4 3 4 4 5 7 9 9 10 9 10 11 12 12 13 13 12 14 16 16 17 19 21 23 21 21 22 21 18 16 14 13 15 16 16 17 19 20 22 23 23 22 22 22 24 25 25 24 24 24 24 23 22 22 22 22 21 21 21 20 19 18 17 18 20 22 26 27 26 25 23 21 23 25 26 29 32 32 31 31 32 32 31 31
1 1 1 2 3 5 7 9 10 10 11 11 12 12 12 13 13 13 13 14 15 17 18 21 22 22 21 21 17 13 13 13 12 13 14 14 17 19 20 22 24 25 25 24 23 24 24 23 23 23 24 23 22 21 22 22 22 22 22 23 22 19 18 16 12 11 12 18 23 25 28 27 23 22 23 25 27 29 31 32 32 31 30 26 24
2 3 3 4 4 5 7 9 11 12 13 14 14 13 13 14 13 13 14 14 15 17 18 20 22 22 21 18 13 10 12 12 11 12 13 13 16 18 19 22 25 26 27 26 25 25 24 21 21 22 23 22 21 21 23 22 21 21 21 23 24 21 19 17 12 8 6 7 11 16 22 25 26 24 22 22 25 25 24 25 27 28 25 19 17
5 6 7 7 6 6 8 10 12 14 15 16 16 15 15 15 15 14 15 15 16 17 18 20 22 24 22 15 10 10 11 10 11 12 12 13 15 16 17 21 25 26 28 27 26 26 25 21 19 20 22 23 22 22 23 23 22 21 21 21 23 23 21 19 16 12 8 6 6 8 11 14 19 21 19 18 21 22 20 20 25 28 23 15 12
8 9 11 10 9 9 11 13 14 16 17 19 18 17 16 16 16 16 16 17 18 17 19 20 21 25 23 14 9 9 10 10 11 12 13 13 14 15 16 19 23 26 28 29 28 27 26 23 20 20 21 23 23 22 22 23 23 23 22 21 21 23 23 22 19 17 14 11 9 8 7 7 11 14 14 13 16 21 23 23 25 28 23 15 12
12 13 13 13 12 13 14 15 17 18 20 21 20 18 17 17 17 17 17 19 20 19 20 21 22 25 23 14 9 9 9 10 12 12 13 13 13 15 17 18 21 24 27 29 29 29 28 26 23 21 21 24 24 23 22 21 23 24 24 22 20 21 24 25 23 21 20 17 15 13 12 10 8 8 9 9 11 17 24 25 26 29 26 19 18
15 15 15 15 16 17 18 19 20 21 23 24 22 19 18 18 18 19 19 20 21 22 22 22 22 24 23 15 10 9 10 11 13 12 12 12 12 15 17 18 19 22 25 27 28 29 29 28 26 24 24 26 26 23 21 21 23 24 24 22 21 22 22 23 25 25 23 21 18 16 15 14 12 9 9 10 10 13 20 23 25 30 29 23 23
16 16 16 18 19 21 21 22 23 24 25 26 23 21 20 19 19 20 21 22 24 24 24 23 22 25 23 15 12 11 12 13 13 11 11 11 12 15 17 18 19 20 23 25 26 27 28 29 28 28 28 28 26 23 22 22 23 23 23 22 22 22 20 21 24 25 25 23 20 18 17 16 15 14 13 13 13 14 17 21 24 30 32 28 26
17 17 19 20 22 24 25 25 27 27 27 27 25 22 22 21 21 22 23 25 26 26 27 25 23 25 24 17 15 15 15 14 13 11 10 11 13 16 17 18 19 19 21 24 25 26 27 28 29 29 28 27 24 22 22 23 23 23 22 21 21 20 18 19 21 22 25 25 22 21 20 18 17 16 14 13 14 16 16 16 20 26 30 30 30
19 20 21 22 24 25 26 27 28 28 29 29 26 24 24 23 23 24 26 27 28 28 29 27 25 25 24 18 17 17 17 14 12 10 11 12 15 17 17 17 19 20 21 23 24 24 26 27 27 27 25 23 22 21 22 23 23 22 20 19 19 18 16 17 18 20 23 23 22 22 21 20 19 18 16 15 16 18 17 13 14 19 23 26 29
20 22 24 26 27 28 28 28 29 29 30 29 27 26 25 25 24 26 27 28 29 29 29 28 26 25 23 19 18 18 17 14 11 11 13 14 16 18 18 18 19 21 22 23 22 23 25 25 24 23 23 23 22 22 23 22 21 20 18 17 17 16 13 14 17 19 20 20 20 20 20 21 21 20 19 18 17 18 18 14 13 15 17 20 22
21 22 24 24 24 23 23 23 25 26 26 26 27 27 25 24 24 26 28 28 28 28 28 28 26 24 22 21 21 21 18 14 12 14 16 16 17 19 18 18 19 20 22 23 22 22 23 23 21 20 21 23 24 23 22 20 19 19 17 15 14 14 12 12 15 16 17 17 18 18 18 19 19 18 17 17 17 18 18 16 13 13 14 15 15
14 14 16 17 19 20 21 22 22 23 23 23 22 21 20 21 24 26 27 27 27 26 26 26 25 24 23 23 25 24 19 14 14 18 19 18 19 20 20 19 19 20 21 22 22 22 23 22 20 19 20 22 23 22 20 19 18 19 17 15 14 13 11 11 14 16 17 17 17 17 17 16 16 14 13 14 16 18 18 17 17 17 16 16 16
15 17 18 21 22 21 21 21 20 20 20 19 18 18 20 22 24 26 27 27 26 25 25 24 24 24 26 28 27 22 16 14 18 23 23 20 19 20 21 20 19 19 20 22 23 23 23 21 20 19 19 19 20 20 19 18 17 17 17 15 14 12 10 9 12 15 17 18 18 17 15 14 13 13 11 11 13 16 18 19 20 21 20 20 21
18 19 20 21 21 20 18 17 17 17 17 17 19 20 23 25 25 26 27 27 27 27 25 24 24 26 28 28 24 18 15 17 21 24 25 23 21 21 21 20 18 18 20 22 22 23 22 20 18 17 16 16 17 19 19 18 17 16 14 14 13 12 10 8 9 11 12 14 15 15 14 14 13 13 11 8 7 11 17 20 21 23 23 23 21
19 19 19 19 19 18 15 14 15 16 17 18 20 22 25 26 27 27 27 27 27 26 25 24 25 27 27 25 20 17 18 21 22 23 24 24 23 22 21 17 16 17 19 19 21 23 21 17 15 16 17 17 17 18 19 19 18 16 14 12 12 12 11 9 9 10 10 11 14 15 15 14 14 13 12 9 4 6 13 20 23 23 22 21 21
19 18 18 19 18 16 14 13 15 17 19 21 23 25 27 28 28 29 29 28 26 24 23 23 24 24 24 22 19 19 22 24 24 24 25 24 21 19 17 15 15 17 18 18 20 20 18 14 14 16 17 18 17 17 17 18 19 18 15 12 11 11 12 11 10 10 11 13 15 15 15 15 15 14 13 10 3 3 9 19 24 24 21 18 18
19 19 19 19 17 15 14 17 20 21 23 26 28 30 31 31 30 29 29 29 28 25 23 23 22 21 20 21 21 21 23 24 23 23 24 23 19 14 14 14 15 16 17 17 18 18 15 13 13 14 15 16 15 14 14 15 16 16 15 13 11 12 12 11 10 9 10 12 14 14 14 14 15 16 15 11 5 3 5 15 22 25 23 20 19
19 20 19 17 15 15 18 22 24 26 29 31 32 32 31 31 31 29 28 29 29 26 25 25 24 21 19 19 20 20 20 20 21 21 23 23 18 12 12 14 16 16 17 17 17 16 15 14 14 13 13 13 12 11 11 12 13 13 13 12 12 13 11 11 10 10 11 12 12 12 13 14 16 17 16 14 7 4 2 8 18 24 23 21 21
19 19 17 15 16 20 24 27 28 30 31 32 32 31 30 29 29 30 30 30 29 26 25 25 25 23 20 18 18 19 20 20 21 22 23 22 17 12 12 15 17 17 17 17 15 16 16 16 15 14 12 10 9 9 8 9 10 11 11 12 13 13 11 9 9 9 10 11 11 11 10 12 14 15 15 15 11 6 4 2 10 19 21 19 20
19 18 16 17 22 26 28 30 31 32 32 31 31 31 31 31 30 30 29 29 28 27 26 25 24 24 23 22 20 20 20 21 22 22 22 20 16 13 14 16 17 18 18 16 15 15 16 15 16 16 13 8 6 6 6 7 8 9 10 11 12 13 11 8 9 10 10 10 11 11 10 11 12 12 14 15 13 8 6 3 3 10 15 16 18
19 19 19 23 28 30 31 32 32 31 31 31 31 31 31 32 31 30 28 27 27 28 28 27 25 24 24 24 24 23 22 22 22 21 21 19 17 15 14 16 18 19 19 18 16 16 15 15 16 16 12 5 3 4 5 5 7 8 10 11 11 12 12 11 9 10 12 12 10 10 11 12 12 11 13 17 17 12 8 6 2 5 9 11 13
20 22 24 28 31 32 31 31 31 30 31 31 32 32 32 31 31 31 30 29 28 29 30 31 29 27 25 24 25 25 24 22 21 21 21 19 17 16 16 17 19 20 21 20 18 15 11 10 9 8 4 0 3 4 5 6 7 8 9 10 10 10 11 11 11 9 9 12 12 10 9 9 9 8 10 15 20 18 13 9 7 6 6 8 9
22 26 29 31 32 31 30 30 30 31 32 33 33 33 32 32 32 31 30 30 30 29 31 33 32 29 27 26 24 22 20 18 18 19 20 18 17 17 16 18 19 20 19 16 11 6 2 1 1 2 3 4 4 5 5 6 7 8 8 9 10 10 10 10 10 10 8 8 11 13 12 10 9 8 7 9 13 16 15 13 13 13 10 8 8
26 29 30 30 29 29 29 30 31 32 33 33 33 33 32 33 33 32 30 31 31 31 31 32 31 28 27 27 23 18 16 17 17 18 18 17 17 17 17 17 18 19 16 8 3 5 5 5 3 3 4 4 4 5 5 6 6 7 8 8 9 10 10 10 9 9 9 8 7 9 13 15 14 12 11 10 9 11 13 14 15 15 14 11 10
29 28 27 27 27 29 30 31 32 32 32 32 33 33 32 32 32 31 31 31 31 31 31 31 30 28 29 30 26 20 17 17 17 16 16 17 18 18 18 18 18 16 11 7 9 7 6 5 3 2 2 3 3 3 4 4 5 5 6 7 8 8 9 9 9 8 8 8 8 6 8 12 15 15 16 15 14 13 12 13 14 15 16 16 16
26 25 26 27 28 30 30 30 31 31 31 32 32 30 30 29 29 29 30 30 31 32 32 29 28 30 33 35 33 27 23 22 21 18 17 19 21 20 19 19 17 13 10 11 9 6 6 5 3 2 0 2 3 3 3 3 3 4 4 5 6 7 6 6 6 6 6 6 7 7 7 7 8 11 15 17 18 19 18 17 16 17 19 20 20
24 25 27 28 28 29 29 29 29 30 29 29 29 28 28 29 28 28 29 29 30 32 32 30 30 33 35 37 36 33 29 28 27 25 23 22 23 22 19 17 13 12 14 14 12 10 9 7 5 4 2 0 2 4 5 5 4 4 4 4 4 4 4 3 4 5 5 5 5 6 6 6 6 6 8 11 15 19 21 22 21 20 21 23 24
25 26 27 27 28 28 28 27 28 28 27 27 27 28 28 29 28 29 29 28 29 30 31 30 31 33 35 36 36 34 31 29 28 29 29 27 25 24 19 14 12 14 16 16 15 13 11 9 7 6 4 1 1 4 6 6 6 6 6 6 5 4 4 4 5 5 5 6 6 5 5 5 5 6 6 6 8 13 17 20 21 20 21 23 24
24 25 26 27 27 27 27 27 27 26 26 26 27 28 29 29 29 29 28 28 29 30 29 29 31 33 35 36 36 33 32 30 29 29 30 29 28 26 20 15 14 16 17 17 15 13 11 10 8 7 5 3 1 3 5 6 6 6 6 7 7 7 6 6 6 6 6 6 6 6 6 5 5 5 5 6 6 8 11 15 17 18 20 20 19
24 25 25 25 25 25 25 26 25 24 25 27 27 28 29 30 29 28 28 29 30 29 29 30 32 32 34 35 34 33 31 30 29 30 29 28 28 27 21 17 17 17 18 17 15 13 11 10 9 7 5 4 2 1 2 4 6 6 7 8 8 8 8 8 8 8 8 8 8 7 6 6 6 6 5 5 6 5 5 8 10 12 15 17 18
23 23 22 23 23 23 24 24 23 23 26 28 28 28 29 30 29 28 28 28 29 30 30 31 32 33 33 34 33 33 32 31 31 31 29 28 26 23 21 21 20 19 19 17 14 12 10 9 8 7 5 4 3 1 1 2 4 7 8 9 9 10 10 11 11 11 10 10 9 9 8 7 6 6 7 6 5 5 4 4 6 7 9 12 17
21 21 21 22 22 22 23 24 24 24 25 27 27 27 28 29 29 28 28 29 30 30 30 31 32 33 33 32 33 34 34 32 32 32 31 29 23 18 21 24 22 20 18 16 13 11 9 8 7 6 5 5 4 3 2 4 6 9 10 11 10 11 11 12 13 12 12 11 11 11 10 10 8 7 7 6 6 4 4 3 4 6 7 8 11
20 21 23 23 23 22 23 24 25 24 24 25 26 26 27 29 29 29 29 31 30 29 29 30 31 32 31 32 34 35 35 34 33 32 31 29 22 18 23 24 20 18 16 14 12 11 9 8 7 6 6 5 4 3 3 5 7 9 10 10 11 12 13 15 15 14 12 12 12 11 11 12 11 9 9 8 7 5 4 4 3 4 6 7 8
21 23 24 24 23 23 23 25 25 25 24 25 26 26 27 29 29 29 30 30 29 29 29 30 31 31 31 32 35 37 37 36 34 32 31 27 20 21 25 22 18 16 14 13 12 11 10 9 8 7 6 6 4 3 4 5 6 8 9 10 11 13 15 16 16 14 13 12 12 11 11 11 11 11 10 9 8 8 6 5 5 4 4 6 7
22 24 25 25 24 23 23 24 25 25 25 26 26 26 27 27 27 27 28 28 27 27 29 30 31 33 34 35 37 39 38 37 36 35 30 20 14 20 22 18 15 13 12 12 12 11 10 10 9 8 6 5 4 3 4 5 7 8 9 10 12 14 16 17 16 15 13 12 11 11 11 10 10 10 10 9 9 9 8 7 7 6 5 5 6
23 24 24 25 24 24 23 24 24 24 24 25 25 25 25 25 25 26 26 27 27 28 30 32 33 35 37 38 39 39 38 36 35 31 23 11 9 14 14 12 12 12 11 11 11 11 10 10 9 7 6 5 4 4 5 6 8 10 12 13 15 16 16 16 15 13 11 10 10 9 10 10 10 9 9 8 8 8 9 8 8 7 6 6 7
24 24 24 24 24 23 23 23 24 23 23 24 25 24 24 25 25 25 26 26 27 28 31 34 35 36 37 38 38 38 37 34 30 23 13 2 6 10 10 10 9 9 9 9 9 9 9 9 8 7 6 6 6 7 8 9 10 12 14 16 17 17 17 16 14 12 10 9 9 8 8 9 9 9 9 8 7 8 8 9 9 8 7 7 7
Wind_Direction
104 71 57 51 36 31 40 52 45 31 24 32 41 39 34 31 28 21 15 13 14 16 16 13 9 3 360 359 359 357 355 355 356 354 351 350 349 346 344 341 337 334 332 330 331 333 330 325 321 320 321 317 313 308 301 296 291 282 278 276 267 262 265 258 242 243 251 253 248 228 218 214 210 207 204 199 197 199 202 205 205 200 197 200 200
106 78 56 44 35 38 57 64 50 42 46 48 43 36 33 32 28 24 25 26 24 21 17 12 8 5 3 2 359 355 354 354 351 344 345 348 347 344 341 340 338 336 335 334 333 333 330 325 321 320 320 316 312 310 305 299 294 285 277 276 268 254 252 254 249 241 242 248 248 230 214 209 207 204 202 199 194 194 199 202 202 202 201 203 204
96 78 50 48 55 60 62 55 46 49 54 51 44 40 38 33 31 33 32 27 23 19 14 11 7 4 2 358 354 352 352 354 348 339 341 346 345 343 341 340 340 340 340 339 338 335 331 325 321 320 320 316 311 309 308 302 296 290 280 273 268 258 250 251 251 245 237 237 237 223 206 203 204 202 202 202 195 191 196 198 199 201 202 205 207
89 70 56 64 72 66 55 51 57 62 60 55 48 42 37 33 33 31 22 16 15 13 9 7 4 1 358 354 351 350 351 352 347 337 335 339 341 340 340 340 340 340 340 340 339 337 332 325 322 322 320 315 310 307 307 304 297 292 285 274 266 261 256 252 252 253 247 231 222 220 209 201 202 202 200 200 197 194 196 197 198 201 202 204 205
76 66 68 75 71 59 55 60 67 67 60 52 42 33 28 26 24 19 13 11 11 9 6 4 1 359 356 353 348 347 348 350 349 341 332 331 335 337 335 336 337 337 336 336 336 335 333 328 324 324 322 315 311 307 306 304 300 293 287 279 268 260 256 252 250 255 258 239 218 214 210 202 200 200 198 196 192 191 196 199 199 201 200 199 199
75 75 77 74 66 60 63 68 68 61 50 39 30 24 23 22 18 12 10 9 9 8 6 2 359 357 353 351 349 347 348 351 352 348 337 328 328 332 331 330 331 332 332 332 333 332 331 329 327 326 324 318 312 309 306 303 301 295 290 285 277 266 256 251 251 251 257 255 232 209 202 202 197 195 197 196 189 184 187 192 196 199 199 194 191
89 86 79 71 68 68 67 64 58 47 37 32 29 26 23 19 12 8 7 7 7 5 2 358 357 355 352 352 352 350 350 352 352 351 345 333 326 326 327 326 326 327 328 329 330 330 328 327 326 325 325 322 316 310 305 301 299 297 292 288 283 274 260 252 252 249 247 255 243 213 199 201 199 193 195 195 189 185 183 179 182 191 195 193 188
97 87 75 69 70 67 57 51 46 42 39 33 29 25 19 14 10 8 7 7 5 360 356 354 353 352 351 354 356 354 351 351 350 349 346 337 330 327 326 325 325 325 327 328 328 328 327 326 325 324 323 321 317 312 304 298 296 296 294 289 284 278 266 253 248 247 241 246 245 220 198 198 200 193 189 185 179 182 186 182 179 184 189 191 189
93 84 75 70 69 61 52 50 46 41 33 24 19 14 11 11 10 10 9 6 3 357 352 351 350 349 350 353 356 354 350 347 346 346 343 337 334 332 328 327 328 328 330 330 328 327 327 327 326 326 323 319 318 318 311 302 297 296 293 289 282 277 270 256 245 242 238 237 241 224 196 191 195 187 181 181 181 184 189 186 181 182 184 184 186
89 85 78 73 70 60 51 45 35 23 12 8 7 5 6 10 11 12 9 2 357 354 353 353 352 349 348 347 348 349 347 344 342 343 342 338 335 334 332 332 334 335 334 332 330 330 330 329 328 328 326 321 321 323 319 310 303 299 294 289 280 273 269 261 247 240 233 227 227 218 195 186 190 186 183 187 188 186 185 184 177 173 173 172 178
94 89 82 78 69 49 37 25 11 3 358 357 359 359 2 7 7 8 8 0 351 347 349 352 353 350 346 342 341 342 343 341 339 342 343 340 337 336 336 337 338 339 338 337 335 334 333 330 328 326 326 325 323 322 320 315 307 301 298 293 284 275 269 263 253 240 230 223 216 206 196 189 188 190 190 188 187 185 185 184 174 166 166 166 170
100 94 86 76 55 33 17 5 356 350 348 349 352 353 352 356 0 4 4 359 351 345 343 343 345 345 342 339 337 338 339 338 337 343 343 341 339 337 336 337 339 340 341 339 337 336 334 331 326 322 323 326 325 321 321 317 307 299 297 295 290 283 275 267 258 243 228 218 208 198 198 196 187 190 194 189 184 184 185 183 177 172 174 176 178
104 96 84 57 35 23 5 352 342 335 334 339 343 344 344 346 352 359 357 353 349 346 342 338 338 337 335 335 335 336 337 334 334 342 343 340 339 337 334 336 340 341 341 339 338 337 337 334 330 327 328 330 330 327 325 322 310 297 291 291 290 287 283 277 267 252 232 217 208 198 196 197 191 191 196 192 184 180 178 180 182 180 180 185 191
106 87 60 25 9 4 350 338 328 319 319 325 329 333 337 340 345 348 348 347 346 344 341 338 337 335 330 330 334 338 337 331 331 339 342 339 337 334 333 335 339 339 339 339 338 337 337 337 335 334 335 336 336 335 331 327 319 304 288 284 286 283 283 285 280 263 236 219 213 207 200 198 195 195 199 198 190 182 179 180 183 185 190 197 201
114 11 347 343 340 339 332 324 314 306 307 312 316 322 331 335 337 336 337 342 342 338 335 334 334 334 330 327 330 338 338 330 329 334 336 336 335 333 332 335 337 337 337 338 338 337 337 339 338 336 334 334 336 338 335 329 326 316 295 279 278 279 278 282 287 280 249 227 223 218 210 204 200 198 201 203 199 193 190 191 192 192 195 197 197
267 273 283 295 303 307 309 308 303 300 303 304 306 315 324 327 329 327 327 332 335 331 328 327 326 328 329 324 320 328 337 334 329 330 330 329 330 330 331 335 337 336 336 336 337 337 337 338 337 334 331 331 333 336 334 330 327 323 306 284 272 270 272 275 276 276 259 227 215 207 199 195 194 196 201 206 207 204 200 196 189 184 181 178 177
263 268 277 284 287 284 285 291 295 297 299 298 300 308 315 318 321 320 317 319 323 323 322 321 320 321 323 317 307 317 335 339 332 326 323 322 322 324 329 334 336 335 333 333 335 337 338 337 333 329 329 333 333 330 329 330 329 326 317 298 277 265 263 266 267 263 253 228 199 188 181 178 181 188 197 207 209 209 204 190 178 174 174 170 166
262 268 274 277 279 279 277 279 286 293 295 293 295 299 304 308 312 312 309 308 311 314 317 317 316 318 317 307 294 312 332 341 335 323 316 315 315 319 327 332 334 333 331 331 332 335 338 337 331 326 326 329 330 327 325 329 331 327 321 309 287 267 259 257 255 255 250 241 233 230 222 198 178 175 185 202 209 208 206 196 184 180 183 184 173
267 271 276 277 278 278 277 276 280 286 289 289 289 291 295 297 301 304 304 302 302 305 311 312 311 314 314 298 282 307 328 337 333 318 308 309 310 315 324 329 331 331 329 327 328 331 335 337 333 328 324 321 323 326 325 326 327 323 318 311 294 276 266 256 247 245 244 241 243 249 253 248 225 191 187 205 219 216 212 207 197 190 190 190 175
274 275 277 280 281 280 277 275 277 281 284 285 284 285 288 289 292 298 298 297 297 298 303 307 307 310 310 293 274 295 314 324 327 314 299 301 306 311 319 324 327 328 326 323 324 327 331 334 333 330 324 320 321 324 323 321 320 317 313 306 294 286 280 264 247 240 239 239 239 244 253 258 258 251 234 232 241 230 216 211 206 199 196 191 178
277 274 277 281 283 283 281 277 277 280 282 282 280 280 283 285 287 292 294 293 292 293 297 302 303 307 307 288 263 278 297 311 323 311 290 294 304 306 311 319 324 324 321 319 320 323 327 330 332 331 328 324 322 323 323 323 320 316 312 305 297 293 289 270 250 239 234 235 235 236 241 248 254 258 252 243 245 239 222 216 213 204 200 196 186
279 277 278 281 283 285 286 283 281 281 281 280 277 276 280 283 286 291 292 290 289 289 293 297 299 305 305 284 258 269 288 305 319 310 289 296 306 301 301 314 322 321 318 317 316 320 325 328 330 332 330 326 324 324 328 330 326 319 315 309 303 298 285 266 251 238 231 231 231 231 233 236 239 241 242 239 239 235 226 223 218 210 208 208 202
284 281 281 283 285 287 289 289 287 285 283 281 277 276 280 282 286 292 294 291 289 288 290 293 296 301 301 282 259 267 285 299 310 309 299 302 306 297 292 307 321 319 314 314 314 317 322 327 331 333 331 329 326 325 331 334 329 322 319 316 312 305 284 261 248 236 228 225 224 223 224 226 229 233 239 241 236 227 219 211 203 202 206 210 210
286 285 286 288 290 292 295 297 297 295 292 287 279 278 281 282 288 297 300 298 294 290 289 293 297 299 296 280 264 270 283 289 299 314 310 301 297 291 287 299 315 317 313 312 313 315 320 325 331 333 331 329 326 323 328 335 334 327 324 320 317 314 295 260 243 232 223 216 214 215 216 218 222 228 234 236 232 224 217 204 187 185 189 196 203
297 299 302 304 309 314 319 323 323 320 314 302 287 281 284 289 298 308 311 307 301 296 294 297 300 299 292 284 280 282 283 281 292 313 312 297 286 284 285 295 309 314 312 312 314 316 319 324 329 330 327 327 327 324 324 333 341 340 333 320 315 317 305 265 235 220 209 205 207 211 212 213 216 220 224 225 222 219 216 208 192 184 184 185 188
331 342 348 351 353 352 350 348 345 340 334 322 304 296 302 310 315 318 317 312 307 303 301 303 306 303 298 295 295 293 285 279 293 306 307 298 287 282 283 293 307 313 311 311 313 316 320 324 327 326 322 324 329 329 325 327 337 346 342 327 315 313 300 258 223 208 205 207 209 212 211 208 208 209 210 213 213 210 206 199 190 184 180 172 162
27 25 17 8 3 358 352 348 346 346 346 343 337 332 331 329 323 320 317 315 311 310 310 310 312 311 307 305 303 296 283 284 300 308 309 305 296 286 283 292 306 313 311 311 315 318 321 325 327 325 322 322 328 334 333 326 327 339 346 339 323 312 298 260 225 212 210 210 206 203 203 200 196 197 200 204 211 212 207 198 188 179 174 167 157
22 15 7 2 358 356 354 354 357 1 359 353 348 341 336 332 326 322 321 320 317 315 313 313 313 312 310 306 302 294 285 292 306 313 312 307 301 291 286 293 307 314 312 313 317 319 321 324 328 331 331 328 328 334 340 336 327 329 341 346 334 318 307 285 251 230 219 208 195 187 186 185 181 180 182 186 206 220 215 206 194 181 171 165 157
10 4 0 357 354 354 0 6 7 3 354 347 343 339 336 334 329 327 329 331 327 320 315 313 316 317 314 308 299 290 290 300 311 316 312 307 301 292 288 296 309 313 312 315 317 319 322 325 331 337 341 338 331 331 338 343 338 330 334 344 339 324 313 301 275 251 229 205 186 175 173 173 170 170 177 182 199 234 219 208 198 186 175 168 161
2 357 353 349 348 354 6 9 3 356 350 347 344 342 340 338 334 331 332 332 330 324 317 314 318 319 314 307 300 295 297 303 310 312 311 309 303 291 288 297 306 308 310 314 317 320 322 322 325 334 341 340 333 329 333 342 343 337 333 335 336 330 321 308 285 255 225 203 190 183 179 174 167 165 176 189 223 269 213 202 195 188 182 176 167
356 352 348 347 351 359 5 2 357 355 353 350 347 343 340 337 333 329 327 325 323 322 320 316 315 314 310 304 302 302 303 305 308 311 313 314 307 291 286 295 302 304 306 311 316 319 318 314 317 328 335 335 333 330 331 338 344 344 339 332 331 333 324 306 288 261 228 208 198 195 196 192 180 174 179 194 238 292 203 192 191 188 186 184 177
353 352 352 355 359 2 360 357 356 353 350 346 343 339 335 332 328 323 323 322 317 314 316 315 310 307 305 300 299 302 304 306 308 310 313 312 305 291 287 294 299 301 303 308 314 317 313 308 310 320 327 330 333 333 330 335 345 351 352 347 341 333 317 296 285 267 241 223 209 200 201 199 191 183 183 191 217 277 263 179 184 186 186 184 179
358 360 3 5 1 358 356 354 352 349 344 339 336 333 329 326 322 318 319 320 314 307 310 316 312 305 300 297 297 300 304 306 306 307 310 308 298 289 291 294 294 296 300 304 307 310 310 305 302 309 318 324 334 337 332 333 343 352 3 8 2 348 324 291 273 263 247 233 218 206 200 196 191 189 189 193 208 250 291 178 175 184 185 180 176
5 4 4 2 358 355 353 350 346 343 339 334 331 328 325 322 318 314 313 315 311 304 305 315 319 312 303 297 294 295 300 303 302 305 310 304 289 282 289 290 288 292 296 297 297 303 308 302 296 303 311 319 336 344 338 337 340 346 360 14 17 9 355 321 278 257 245 234 226 222 219 210 203 199 199 201 209 230 259 267 166 171 178 179 177
11 7 2 357 354 351 348 345 342 338 335 332 328 326 323 320 318 315 312 311 305 297 296 306 315 313 305 296 289 287 291 294 296 303 308 298 280 275 281 283 285 290 293 294 298 304 308 303 298 301 304 308 353 3 358 359 352 345 352 6 14 16 13 358 319 272 243 229 229 235 231 224 222 221 215 211 212 219 236 245 210 158 165 170 174
9 3 357 353 351 348 345 343 341 338 335 333 330 328 325 322 319 317 316 314 308 297 292 295 302 306 304 297 289 286 288 289 291 300 304 291 272 268 275 281 285 290 294 298 304 307 307 302 297 296 289 146 66 41 35 33 19 2 358 0 2 7 13 10 356 324 267 239 233 233 229 219 220 228 224 212 209 212 221 230 232 221 188 162 161
2 358 354 352 350 348 346 345 344 343 340 337 333 329 326 325 323 321 319 318 314 305 296 293 295 299 301 300 295 288 284 284 290 300 301 285 265 264 275 281 283 287 291 297 302 299 278 212 190 142 113 95 73 59 50 40 30 22 14 8 3 4 8 8 5 359 334 282 252 239 234 230 229 237 241 223 207 205 211 223 236 242 230 195 177
359 355 354 353 353 352 352 350 348 346 343 340 337 334 331 330 330 329 328 326 322 314 304 296 292 292 295 298 299 291 279 279 289 299 296 277 259 259 269 273 278 284 286 277 210 164 152 143 141 125 100 81 66 58 47 37 35 32 23 16 10 7 8 7 2 2 359 341 303 263 247 243 241 242 246 246 230 213 212 223 233 238 239 229 218
358 357 357 359 0 360 357 353 350 349 347 345 343 342 341 341 340 340 340 337 333 327 318 305 297 297 301 303 301 292 278 275 281 288 283 265 252 251 258 264 275 282 268 210 170 165 166 159 154 136 89 57 38 37 32 27 32 32 27 22 16 8 8 9 3 1 2 355 346 325 282 262 253 242 235 235 236 235 236 240 239 234 232 230 225
0 3 5 7 7 4 2 360 358 356 352 349 349 351 352 352 350 349 349 348 346 345 339 327 318 320 323 319 313 303 289 280 279 280 270 254 245 245 252 260 267 263 227 193 180 187 191 183 186 198 111 20 4 6 4 357 14 25 21 17 10 360 355 357 359 4 6 356 350 351 340 311 279 251 233 227 228 232 236 242 247 242 234 227 224
7 10 11 12 10 7 6 5 2 357 355 356 358 0 360 358 357 355 355 355 355 354 352 345 339 338 338 335 332 324 311 298 291 285 273 256 246 245 249 250 244 223 204 198 199 203 203 201 204 205 198 308 333 342 346 339 341 351 357 2 1 346 333 341 360 13 19 12 359 350 345 340 326 293 258 239 234 232 230 230 235 237 234 228 226
15 15 14 13 10 6 3 1 358 358 0 3 5 5 3 1 360 358 356 356 355 353 351 347 343 341 339 340 341 337 327 317 308 296 283 268 256 252 246 231 211 202 201 202 202 200 197 194 191 188 183 189 305 326 335 341 345 348 353 4 13 6 352 351 358 7 19 28 26 14 358 347 336 321 302 281 263 248 237 231 230 232 233 231 228
21 19 16 12 9 6 5 2 1 3 7 8 7 6 3 1 358 356 354 353 352 350 348 344 341 338 337 338 339 336 330 327 322 310 297 284 272 263 248 219 201 200 200 199 198 195 193 192 191 190 190 193 234 309 326 339 349 352 355 4 9 10 5 358 353 354 4 17 22 22 17 9 356 342 326 314 298 271 247 238 234 230 227 222 216
20 18 16 14 13 14 12 10 10 12 12 9 7 4 1 359 356 354 353 351 348 347 346 343 340 338 336 336 335 332 327 324 321 314 304 293 284 272 250 221 205 200 195 193 195 196 195 195 194 189 181 175 180 254 324 337 346 355 1 2 360 359 358 357 354 353 353 357 1 6 11 14 12 9 1 344 326 305 266 240 230 224 216 205 200
18 18 19 18 18 18 17 17 17 14 10 7 4 1 359 357 354 351 350 348 346 344 343 342 341 339 337 335 334 331 326 322 319 314 305 297 289 272 241 216 204 197 192 188 187 189 190 190 188 181 164 144 136 125 30 360 2 8 9 7 4 2 359 355 350 346 341 338 339 342 348 356 3 9 13 11 358 332 301 261 233 227 222 208 203
23 24 22 21 21 21 20 18 15 10 7 5 1 357 355 353 350 348 346 346 344 343 342 341 340 339 336 335 334 331 327 323 321 317 309 301 289 259 223 208 198 189 182 178 176 178 180 177 174 172 159 143 136 122 76 38 20 9 4 2 3 2 357 351 346 340 335 331 328 328 329 333 339 346 352 359 7 1 334 299 262 244 240 230 216
30 27 25 25 24 22 18 13 9 5 2 360 357 353 352 350 348 346 346 345 345 344 343 342 340 337 335 334 333 332 330 326 323 319 315 307 288 241 208 197 186 175 170 168 168 170 169 164 160 158 150 141 131 106 62 29 9 357 350 348 347 345 343 342 341 338 333 327 323 321 318 317 320 326 329 331 339 347 345 330 301 262 247 245 236
31 27 26 26 23 17 12 8 4 0 357 355 353 350 349 347 347 348 347 346 345 344 344 343 340 337 336 335 334 332 331 328 324 323 321 311 277 223 196 182 171 166 167 165 161 157 152 147 144 143 142 141 130 90 50 23 7 358 350 346 343 338 334 333 333 332 329 323 318 315 313 310 310 313 315 315 320 324 326 330 330 304 262 247 238
29 26 23 21 18 13 8 4 1 358 356 354 351 349 348 350 350 349 347 346 345 346 345 343 341 339 338 338 336 335 333 331 328 326 322 305 242 196 179 167 161 163 164 157 149 144 137 130 129 129 129 127 112 79 46 20 8 3 358 351 345 338 331 327 326 325 323 318 314 313 313 312 312 311 307 304 305 306 306 315 326 323 300 271 249
26 24 21 18 15 11 6 4 2 359 357 355 352 350 351 353 352 349 348 348 348 347 345 343 342 341 341 340 339 337 336 335 335 334 326 297 204 168 153 148 152 156 155 146 137 132 127 122 119 119 116 108 92 70 47 26 15 9 3 356 350 343 336 332 329 324 318 313 311 311 313 315 317 316 310 303 299 295 293 299 310 315 309 289 265
25 24 22 20 17 14 9 6 5 2 360 358 357 355 355 355 353 352 351 350 347 345 346 346 345 345 346 345 344 343 342 343 346 351 353 360 145 134 131 137 142 144 147 141 126 116 113 109 104 101 97 91 79 63 48 38 27 16 6 358 352 348 344 339 333 327 321 315 310 309 314 317 319 320 316 308 302 295 289 289 294 299 301 296 276